Time,TemperatureF,DewpointF,PressureIn,WindDirection,WindDirectionDegrees,WindSpeedMPH,WindSpeedGustMPH,Humidity,HourlyPrecipIn,Conditions,Clouds,dailyrainin,SolarRadiationWatts/m^2,SoftwareType,DateUTC
2013-05-12 00:00:00,52.3,32.1,30.11,East,100,0.0,-999.0,44,-99.99,,,0.00,0.0,cwc,2013-05-12 06:00:00,
2013-05-12 00:05:00,52.2,32.0,30.12,East,100,0.0,-999.0,44,-99.99,,,0.00,0.0,cwc,2013-05-12 06:05:00,
2013-05-12 00:10:00,52.0,31.8,30.12,East,100,0.0,-999.0,44,-99.99,,,0.00,0.0,cwc,2013-05-12 06:10:00,
2013-05-12 00:15:00,51.7,31.5,30.12,East,100,2.0,-999.0,44,-99.99,,,0.00,0.0,cwc,2013-05-12 06:15:00,
2013-05-12 00:20:00,51.4,32.0,30.10,East,95,2.0,-999.0,46,-99.99,,,0.00,0.0,cwc,2013-05-12 06:20:00,
2013-05-12 00:25:00,51.0,31.2,30.10,East,90,2.0,-999.0,45,-99.99,,,0.00,0.0,cwc,2013-05-12 06:25:00,
2013-05-12 00:30:00,50.8,31.7,30.10,East,92,2.0,-999.0,47,-99.99,,,0.00,0.0,cwc,2013-05-12 06:30:00,
2013-05-12 00:35:00,50.7,32.0,30.11,East,86,6.0,-999.0,48,-99.99,,,0.00,0.0,cwc,2013-05-12 06:35:00,
2013-05-12 00:40:00,50.5,30.7,30.11,East,79,6.0,-999.0,45,-99.99,,,0.00,0.0,cwc,2013-05-12 06:40:00,
2013-05-12 00:45:00,50.4,31.3,30.11,East,79,2.0,-999.0,47,-99.99,,,0.00,0.0,cwc,2013-05-12 06:45:00,
2013-05-12 00:50:00,50.4,30.6,30.11,East,79,6.0,-999.0,45,-99.99,,,0.00,0.0,cwc,2013-05-12 06:50:00,
2013-05-12 00:55:00,50.2,31.1,30.11,East,79,4.0,-999.0,47,-99.99,,,0.00,0.0,cwc,2013-05-12 06:55:00,
2013-05-12 01:00:00,49.9,31.5,30.11,East,80,4.0,-999.0,49,-99.99,,,0.00,0.0,cwc,2013-05-12 07:00:00,
2013-05-12 01:05:00,49.8,31.1,30.12,East,80,0.0,-999.0,48,-99.99,,,0.00,0.0,cwc,2013-05-12 07:05:00,
2013-05-12 01:10:00,49.6,30.9,30.12,East,80,0.0,-999.0,48,-99.99,,,0.00,0.0,cwc,2013-05-12 07:10:00,
2013-05-12 01:15:00,49.4,31.0,30.12,East,80,0.0,-999.0,49,-99.99,,,0.00,0.0,cwc,2013-05-12 07:15:00,
2013-05-12 01:20:00,49.4,31.0,30.09,East,80,0.0,-999.0,49,-99.99,,,0.00,0.0,cwc,2013-05-12 07:20:00,
2013-05-12 01:25:00,49.2,30.8,30.09,East,80,0.0,-999.0,49,-99.99,,,0.00,0.0,cwc,2013-05-12 07:25:00,
2013-05-12 01:30:00,49.1,31.1,30.09,East,80,2.0,-999.0,50,-99.99,,,0.00,0.0,cwc,2013-05-12 07:30:00,
2013-05-12 01:40:00,48.8,30.8,30.10,East,80,0.0,-999.0,50,-99.99,,,0.00,0.0,cwc,2013-05-12 07:40:00,
2013-05-12 01:45:00,48.6,30.6,30.10,East,80,0.0,-999.0,50,-99.99,,,0.00,0.0,cwc,2013-05-12 07:45:00,
2013-05-12 01:50:00,48.8,33.3,30.10,East,80,0.0,-999.0,57,-99.99,,,0.00,0.0,cwc,2013-05-12 07:50:00,
2013-05-12 01:55:00,48.5,31.6,30.10,East,80,1.0,-999.0,53,-99.99,,,0.00,0.0,cwc,2013-05-12 07:55:00,
2013-05-12 02:00:00,47.9,31.0,30.10,East,80,2.0,-999.0,53,-99.99,,,0.00,0.0,cwc,2013-05-12 08:00:00,
2013-05-12 02:05:00,48.2,33.4,30.08,East,80,0.0,-999.0,59,-99.99,,,0.00,0.0,cwc,2013-05-12 08:05:00,
2013-05-12 02:10:00,47.6,31.0,30.08,East,80,0.0,-999.0,54,-99.99,,,0.00,0.0,cwc,2013-05-12 08:10:00,
2013-05-12 02:15:00,47.4,30.8,30.08,East,80,2.0,-999.0,54,-99.99,,,0.00,0.0,cwc,2013-05-12 08:15:00,
2013-05-12 02:20:00,47.0,30.4,30.14,East,80,2.0,-999.0,54,-99.99,,,0.00,0.0,cwc,2013-05-12 08:20:00,
2013-05-12 02:25:00,46.8,30.6,30.14,East,100,7.0,-999.0,55,-99.99,,,0.00,0.0,cwc,2013-05-12 08:25:00,
2013-05-12 02:30:00,46.8,30.2,30.14,ESE,113,0.0,-999.0,54,-99.99,,,0.00,0.0,cwc,2013-05-12 08:30:00,
2013-05-12 02:35:00,46.8,30.2,30.14,ESE,113,0.0,-999.0,54,-99.99,,,0.00,0.0,cwc,2013-05-12 08:35:00,
2013-05-12 02:40:00,48.3,35.0,30.14,ESE,113,0.0,-999.0,63,-99.99,,,0.00,0.0,cwc,2013-05-12 08:40:00,
2013-05-12 02:45:00,46.5,31.0,30.14,ESE,113,4.0,-999.0,57,-99.99,,,0.00,0.0,cwc,2013-05-12 08:45:00,
2013-05-12 02:50:00,46.1,30.6,30.15,ESE,113,0.0,-999.0,57,-99.99,,,0.00,0.0,cwc,2013-05-12 08:50:00,
2013-05-12 02:55:00,46.0,30.5,30.15,ESE,103,2.0,-999.0,57,-99.99,,,0.00,0.0,cwc,2013-05-12 08:55:00,
2013-05-12 03:00:00,45.8,30.3,30.15,ESE,103,0.0,-999.0,57,-99.99,,,0.00,0.0,cwc,2013-05-12 09:00:00,
2013-05-12 03:05:00,45.5,30.0,30.15,ESE,103,0.0,-999.0,57,-99.99,,,0.00,0.0,cwc,2013-05-12 09:05:00,
2013-05-12 03:10:00,45.4,29.9,30.15,ESE,103,0.0,-999.0,57,-99.99,,,0.00,0.0,cwc,2013-05-12 09:10:00,
2013-05-12 03:15:00,45.2,30.1,30.15,ESE,103,0.0,-999.0,58,-99.99,,,0.00,0.0,cwc,2013-05-12 09:15:00,
2013-05-12 03:20:00,45.1,30.0,30.13,ESE,103,0.0,-999.0,58,-99.99,,,0.00,0.0,cwc,2013-05-12 09:20:00,
2013-05-12 03:25:00,44.8,30.0,30.13,ESE,103,2.0,-999.0,59,-99.99,,,0.00,0.0,cwc,2013-05-12 09:25:00,
2013-05-12 03:30:00,46.7,33.7,30.13,ESE,103,0.0,-999.0,64,-99.99,,,0.00,0.0,cwc,2013-05-12 09:30:00,
2013-05-12 03:35:00,44.6,30.2,30.12,ESE,103,0.0,-999.0,60,-99.99,,,0.00,0.0,cwc,2013-05-12 09:35:00,
2013-05-12 03:40:00,46.5,35.7,30.12,ESE,103,0.0,-999.0,70,-99.99,,,0.00,0.0,cwc,2013-05-12 09:40:00,
2013-05-12 03:45:00,46.8,35.3,30.12,ESE,103,0.0,-999.0,68,-99.99,,,0.00,0.0,cwc,2013-05-12 09:45:00,
2013-05-12 03:55:00,44.8,32.2,30.11,ESE,103,4.0,-999.0,65,-99.99,,,0.00,0.0,cwc,2013-05-12 09:55:00,
2013-05-12 04:00:00,46.4,34.9,30.11,ESE,103,0.0,-999.0,68,-99.99,,,0.00,0.0,cwc,2013-05-12 10:00:00,
2013-05-12 04:05:00,44.2,34.8,30.13,ESE,103,0.0,-999.0,74,-99.99,,,0.00,0.0,cwc,2013-05-12 10:05:00,
2013-05-12 04:10:00,43.5,29.8,30.13,ESE,103,0.0,-999.0,62,-99.99,,,0.00,0.0,cwc,2013-05-12 10:10:00,
2013-05-12 04:15:00,45.5,35.1,30.13,ESE,103,0.0,-999.0,71,-99.99,,,0.00,0.0,cwc,2013-05-12 10:15:00,
2013-05-12 04:20:00,44.3,34.2,30.16,ESE,103,0.0,-999.0,72,-99.99,,,0.00,0.0,cwc,2013-05-12 10:20:00,
2013-05-12 04:25:00,43.2,31.7,30.16,ESE,103,0.0,-999.0,68,-99.99,,,0.00,0.0,cwc,2013-05-12 10:25:00,
2013-05-12 04:30:00,42.8,30.2,30.16,ESE,103,0.0,-999.0,65,-99.99,,,0.00,0.0,cwc,2013-05-12 10:30:00,
2013-05-12 04:35:00,42.9,33.5,30.19,ESE,103,0.0,-999.0,74,-99.99,,,0.00,0.0,cwc,2013-05-12 10:35:00,
2013-05-12 04:40:00,42.1,30.2,30.19,ESE,103,0.0,-999.0,67,-99.99,,,0.00,0.0,cwc,2013-05-12 10:40:00,
2013-05-12 04:45:00,41.6,29.0,30.19,ESE,103,0.0,-999.0,65,-99.99,,,0.00,0.0,cwc,2013-05-12 10:45:00,
2013-05-12 04:50:00,43.8,34.1,30.20,ESE,103,0.0,-999.0,73,-99.99,,,0.00,0.0,cwc,2013-05-12 10:50:00,
2013-05-12 04:55:00,41.2,29.7,30.20,ESE,103,0.0,-999.0,68,-99.99,,,0.00,0.0,cwc,2013-05-12 10:55:00,
2013-05-12 05:00:00,40.5,28.6,30.20,ESE,103,0.0,-999.0,67,-99.99,,,0.00,0.0,cwc,2013-05-12 11:00:00,
2013-05-12 05:05:00,40.6,30.5,30.20,ESE,103,0.0,-999.0,72,-99.99,,,0.00,0.0,cwc,2013-05-12 11:05:00,
2013-05-12 05:10:00,40.1,28.9,30.20,ESE,103,0.0,-999.0,69,-99.99,,,0.00,0.0,cwc,2013-05-12 11:10:00,
2013-05-12 05:15:00,39.8,29.4,30.20,ESE,103,0.0,-999.0,71,-99.99,,,0.00,0.0,cwc,2013-05-12 11:15:00,
2013-05-12 05:20:00,39.5,29.4,30.19,ESE,103,0.0,-999.0,72,-99.99,,,0.00,0.0,cwc,2013-05-12 11:20:00,
2013-05-12 05:25:00,40.1,30.4,30.19,ESE,103,0.0,-999.0,73,-99.99,,,0.00,0.0,cwc,2013-05-12 11:25:00,
2013-05-12 05:30:00,39.5,31.9,30.19,ESE,103,0.0,-999.0,79,-99.99,,,0.00,0.0,cwc,2013-05-12 11:30:00,
2013-05-12 05:35:00,39.9,29.8,30.19,ESE,103,0.0,-999.0,72,-99.99,,,0.00,0.0,cwc,2013-05-12 11:35:00,
2013-05-12 05:40:00,39.3,29.2,30.19,ESE,103,0.0,-999.0,72,-99.99,,,0.00,0.0,cwc,2013-05-12 11:40:00,
2013-05-12 05:45:00,39.8,30.1,30.19,ESE,103,0.0,-999.0,73,-99.99,,,0.00,0.0,cwc,2013-05-12 11:45:00,
2013-05-12 05:50:00,39.1,30.5,30.20,ESE,103,0.0,-999.0,76,-99.99,,,0.00,0.0,cwc,2013-05-12 11:50:00,
2013-05-12 05:55:00,40.1,32.5,30.20,ESE,103,0.0,-999.0,79,-99.99,,,0.00,0.0,cwc,2013-05-12 11:55:00,
2013-05-12 06:00:00,38.3,30.0,30.20,ESE,103,0.0,-999.0,77,-99.99,,,0.00,0.0,cwc,2013-05-12 12:00:00,
2013-05-12 06:05:00,37.6,31.8,30.21,ESE,103,0.0,-999.0,84,-99.99,,,0.00,0.0,cwc,2013-05-12 12:05:00,
2013-05-12 06:10:00,37.0,32.0,30.21,ESE,103,0.0,-999.0,86,-99.99,,,0.00,0.0,cwc,2013-05-12 12:10:00,
2013-05-12 06:15:00,38.3,33.6,30.21,ESE,103,0.0,-999.0,87,-99.99,,,0.00,0.0,cwc,2013-05-12 12:15:00,
2013-05-12 06:20:00,38.0,34.0,30.22,ESE,103,0.0,-999.0,89,-99.99,,,0.00,0.0,cwc,2013-05-12 12:20:00,
2013-05-12 06:25:00,37.5,33.5,30.22,ESE,103,0.0,-999.0,89,-99.99,,,0.00,0.0,cwc,2013-05-12 12:25:00,
2013-05-12 06:30:00,40.5,36.9,30.22,ESE,103,0.0,-999.0,90,-99.99,,,0.00,0.0,cwc,2013-05-12 12:30:00,
2013-05-12 06:35:00,40.8,37.2,30.18,ESE,103,0.0,-999.0,90,-99.99,,,0.00,0.0,cwc,2013-05-12 12:35:00,
2013-05-12 06:40:00,40.1,37.9,30.18,ESE,103,0.0,-999.0,94,-99.99,,,0.00,0.0,cwc,2013-05-12 12:40:00,
2013-05-12 06:45:00,39.6,37.4,30.18,ESE,103,0.0,-999.0,94,-99.99,,,0.00,0.0,cwc,2013-05-12 12:45:00,
2013-05-12 06:50:00,39.3,34.3,30.20,ESE,103,0.0,-999.0,86,-99.99,,,0.00,0.0,cwc,2013-05-12 12:50:00,
2013-05-12 06:55:00,39.5,36.6,30.20,ESE,103,0.0,-999.0,92,-99.99,,,0.00,0.0,cwc,2013-05-12 12:55:00,
2013-05-12 07:00:00,39.9,36.7,30.20,ESE,103,0.0,-999.0,91,-99.99,,,0.00,0.0,cwc,2013-05-12 13:00:00,
2013-05-12 07:05:00,40.8,36.5,30.21,ESE,103,0.0,-999.0,88,-99.99,,,0.00,0.0,cwc,2013-05-12 13:05:00,
2013-05-12 07:10:00,41.2,36.2,30.21,ESE,103,0.0,-999.0,86,-99.99,,,0.00,0.0,cwc,2013-05-12 13:10:00,
2013-05-12 07:15:00,41.9,36.1,30.21,ESE,103,0.0,-999.0,84,-99.99,,,0.00,0.0,cwc,2013-05-12 13:15:00,
2013-05-12 07:20:00,43.1,35.5,30.21,ESE,103,0.0,-999.0,79,-99.99,,,0.00,0.0,cwc,2013-05-12 13:20:00,
2013-05-12 07:25:00,44.5,36.2,30.21,ESE,103,0.0,-999.0,77,-99.99,,,0.00,0.0,cwc,2013-05-12 13:25:00,
2013-05-12 07:30:00,44.3,34.9,30.21,ESE,103,0.0,-999.0,74,-99.99,,,0.00,0.0,cwc,2013-05-12 13:30:00,
2013-05-12 07:35:00,44.9,35.2,30.20,ESE,103,0.0,-999.0,73,-99.99,,,0.00,0.0,cwc,2013-05-12 13:35:00,
2013-05-12 07:40:00,47.4,35.9,30.20,ESE,103,0.0,-999.0,68,-99.99,,,0.00,0.0,cwc,2013-05-12 13:40:00,
2013-05-12 07:45:00,48.3,30.7,30.20,ESE,103,0.0,-999.0,51,-99.99,,,0.00,0.0,cwc,2013-05-12 13:45:00,
2013-05-12 07:50:00,48.8,30.8,30.19,ESE,103,0.0,-999.0,50,-99.99,,,0.00,0.0,cwc,2013-05-12 13:50:00,
2013-05-12 07:55:00,49.4,31.4,30.19,ESE,103,0.0,-999.0,50,-99.99,,,0.00,0.0,cwc,2013-05-12 13:55:00,
2013-05-12 08:00:00,49.9,31.5,30.19,ESE,103,0.0,-999.0,49,-99.99,,,0.00,0.0,cwc,2013-05-12 14:00:00,
2013-05-12 08:05:00,50.8,31.7,30.17,ESE,103,0.0,-999.0,47,-99.99,,,0.00,0.0,cwc,2013-05-12 14:05:00,
2013-05-12 08:10:00,51.9,32.1,30.17,ESE,103,0.0,-999.0,45,-99.99,,,0.00,0.0,cwc,2013-05-12 14:10:00,
2013-05-12 08:15:00,52.5,32.3,30.17,ESE,103,0.0,-999.0,44,-99.99,,,0.00,0.0,cwc,2013-05-12 14:15:00,
2013-05-12 08:20:00,52.8,32.3,30.17,ESE,103,0.0,-999.0,43,-99.99,,,0.00,0.0,cwc,2013-05-12 14:20:00,
2013-05-12 08:25:00,53.6,32.7,30.17,ESE,103,0.0,-999.0,42,-99.99,,,0.00,0.0,cwc,2013-05-12 14:25:00,
2013-05-12 08:30:00,54.1,32.9,30.17,ESE,103,0.0,-999.0,41,-99.99,,,0.00,0.0,cwc,2013-05-12 14:30:00,
2013-05-12 08:35:00,54.7,33.5,30.16,East,99,0.0,-999.0,41,-99.99,,,0.00,0.0,cwc,2013-05-12 14:35:00,
2013-05-12 08:40:00,55.6,35.1,30.16,East,99,0.0,-999.0,43,-99.99,,,0.00,0.0,cwc,2013-05-12 14:40:00,
2013-05-12 08:45:00,56.6,36.4,30.16,East,99,0.0,-999.0,44,-99.99,,,0.00,0.0,cwc,2013-05-12 14:45:00,
2013-05-12 08:50:00,56.5,34.2,30.14,East,96,0.0,-999.0,38,-99.99,,,0.00,0.0,cwc,2013-05-12 14:50:00,
2013-05-12 08:55:00,57.2,34.9,30.14,East,97,0.0,-999.0,38,-99.99,,,0.00,0.0,cwc,2013-05-12 14:55:00,
2013-05-12 09:00:00,57.8,35.1,30.14,NNE,28,0.0,-999.0,37,-99.99,,,0.00,0.0,cwc,2013-05-12 15:00:00,
2013-05-12 09:05:00,58.6,35.6,30.14,NNE,28,0.0,-999.0,36,-99.99,,,0.00,0.0,cwc,2013-05-12 15:05:00,
2013-05-12 09:10:00,58.0,35.0,30.14,NNE,28,0.0,-999.0,36,-99.99,,,0.00,0.0,cwc,2013-05-12 15:10:00,
2013-05-12 09:15:00,58.7,35.7,30.14,NNE,28,0.0,-999.0,36,-99.99,,,0.00,0.0,cwc,2013-05-12 15:15:00,
2013-05-12 09:20:00,59.5,36.1,30.13,NNE,28,0.0,-999.0,35,-99.99,,,0.00,0.0,cwc,2013-05-12 15:20:00,
2013-05-12 09:25:00,60.1,37.1,30.13,NNE,28,0.0,-999.0,36,-99.99,,,0.00,0.0,cwc,2013-05-12 15:25:00,
2013-05-12 09:30:00,60.4,36.3,30.13,NNE,28,0.0,-999.0,33,-99.99,,,0.00,0.0,cwc,2013-05-12 15:30:00,
2013-05-12 09:35:00,60.5,36.7,30.11,NNE,28,0.0,-999.0,34,-99.99,,,0.00,0.0,cwc,2013-05-12 15:35:00,
2013-05-12 09:40:00,61.5,37.4,30.11,North,6,0.0,-999.0,33,-99.99,,,0.00,0.0,cwc,2013-05-12 15:40:00,
2013-05-12 09:45:00,60.7,36.6,30.11,North,10,0.0,-999.0,33,-99.99,,,0.00,0.0,cwc,2013-05-12 15:45:00,
2013-05-12 09:50:00,61.6,36.8,30.09,SSW,198,4.0,-999.0,31,-99.99,,,0.00,0.0,cwc,2013-05-12 15:50:00,
2013-05-12 09:55:00,62.6,37.8,30.09,SSW,198,0.0,-999.0,31,-99.99,,,0.00,0.0,cwc,2013-05-12 15:55:00,
2013-05-12 10:00:00,62.9,37.3,30.09,SE,137,2.0,-999.0,29,-99.99,,,0.00,0.0,cwc,2013-05-12 16:00:00,
2013-05-12 10:05:00,65.3,39.7,30.08,ESE,121,0.0,-999.0,29,-99.99,,,0.00,0.0,cwc,2013-05-12 16:05:00,
2013-05-12 10:10:00,63.7,38.1,30.08,NNE,16,6.0,-999.0,29,-99.99,,,0.00,0.0,cwc,2013-05-12 16:10:00,
2013-05-12 10:15:00,64.3,38.4,30.08,North,10,2.0,-999.0,28,-99.99,,,0.00,0.0,cwc,2013-05-12 16:15:00,
2013-05-12 10:20:00,64.7,38.8,30.08,North,11,0.0,-999.0,28,-99.99,,,0.00,0.0,cwc,2013-05-12 16:20:00,
2013-05-12 10:25:00,65.6,39.3,30.08,NNW,343,4.0,-999.0,27,-99.99,,,0.00,0.0,cwc,2013-05-12 16:25:00,
2013-05-12 10:30:00,66.3,40.4,30.08,NNW,342,0.0,-999.0,28,-99.99,,,0.00,0.0,cwc,2013-05-12 16:30:00,
2013-05-12 10:35:00,66.4,39.4,30.07,East,86,1.0,-999.0,25,-99.99,,,0.00,0.0,cwc,2013-05-12 16:35:00,
2013-05-12 10:40:00,65.8,39.2,30.07,East,92,2.0,-999.0,26,-99.99,,,0.00,0.0,cwc,2013-05-12 16:40:00,
2013-05-12 10:45:00,66.6,39.6,30.07,East,92,0.0,-999.0,25,-99.99,,,0.00,0.0,cwc,2013-05-12 16:45:00,
2013-05-12 10:50:00,66.4,39.4,30.05,ENE,72,0.0,-999.0,25,-99.99,,,0.00,0.0,cwc,2013-05-12 16:50:00,
2013-05-12 10:55:00,65.6,39.0,30.05,NE,45,6.0,-999.0,26,-99.99,,,0.00,0.0,cwc,2013-05-12 16:55:00,
2013-05-12 11:00:00,66.1,39.5,30.05,NNE,18,1.0,-999.0,26,-99.99,,,0.00,0.0,cwc,2013-05-12 17:00:00,
2013-05-12 11:05:00,67.8,40.8,30.05,NNE,18,1.0,-999.0,25,-99.99,,,0.00,0.0,cwc,2013-05-12 17:05:00,
2013-05-12 11:10:00,66.6,39.6,30.05,ENE,62,0.0,-999.0,25,-99.99,,,0.00,0.0,cwc,2013-05-12 17:10:00,
2013-05-12 11:15:00,67.8,40.4,30.05,NNE,18,6.0,-999.0,24,-99.99,,,0.00,0.0,cwc,2013-05-12 17:15:00,
2013-05-12 11:20:00,68.3,40.9,30.04,East,96,0.0,-999.0,24,-99.99,,,0.00,0.0,cwc,2013-05-12 17:20:00,
2013-05-12 11:25:00,68.9,41.2,30.04,ESE,109,2.0,-999.0,23,-99.99,,,0.00,0.0,cwc,2013-05-12 17:25:00,
2013-05-12 11:30:00,69.1,41.4,30.04,ENE,71,2.0,-999.0,23,-99.99,,,0.00,0.0,cwc,2013-05-12 17:30:00,
2013-05-12 11:35:00,70.1,42.0,30.03,South,188,6.0,-999.0,22,-99.99,,,0.00,0.0,cwc,2013-05-12 17:35:00,
2013-05-12 11:40:00,70.9,42.8,30.03,SE,143,0.0,-999.0,22,-99.99,,,0.00,0.0,cwc,2013-05-12 17:40:00,
2013-05-12 11:45:00,70.1,42.0,30.03,NE,45,4.0,-999.0,22,-99.99,,,0.00,0.0,cwc,2013-05-12 17:45:00,
2013-05-12 11:50:00,70.6,42.2,30.01,NNE,31,7.0,-999.0,21,-99.99,,,0.00,0.0,cwc,2013-05-12 17:50:00,
2013-05-12 11:55:00,70.3,42.2,30.01,NE,35,0.0,-999.0,22,-99.99,,,0.00,0.0,cwc,2013-05-12 17:55:00,
2013-05-12 12:00:00,71.6,43.2,30.01,WSW,254,0.0,-999.0,21,-99.99,,,0.00,0.0,cwc,2013-05-12 18:00:00,
2013-05-12 12:05:00,71.5,43.1,29.98,NNW,330,7.0,-999.0,21,-99.99,,,0.00,0.0,cwc,2013-05-12 18:05:00,
2013-05-12 12:10:00,72.0,43.6,29.98,North,356,1.0,-999.0,21,-99.99,,,0.00,0.0,cwc,2013-05-12 18:10:00,
2013-05-12 12:15:00,72.3,43.5,29.98,NW,304,6.0,-999.0,20,-99.99,,,0.00,0.0,cwc,2013-05-12 18:15:00,
2013-05-12 12:20:00,72.0,43.2,29.98,NW,323,0.0,-999.0,20,-99.99,,,0.00,0.0,cwc,2013-05-12 18:20:00,
2013-05-12 12:25:00,72.7,43.9,29.98,NW,305,14.0,-999.0,20,-99.99,,,0.00,0.0,cwc,2013-05-12 18:25:00,
2013-05-12 12:30:00,73.2,44.0,29.98,WNW,292,0.0,-999.0,19,-99.99,,,0.00,0.0,cwc,2013-05-12 18:30:00,
2013-05-12 12:40:00,74.0,44.5,29.98,West,271,0.0,-999.0,18,-99.99,,,0.00,0.0,cwc,2013-05-12 18:40:00,
2013-05-12 12:45:00,73.2,44.0,29.98,North,359,7.0,-999.0,19,-99.99,,,0.00,0.0,cwc,2013-05-12 18:45:00,
2013-05-12 12:50:00,73.5,44.3,29.97,North,7,13.0,-999.0,19,-99.99,,,0.00,0.0,cwc,2013-05-12 18:50:00,
2013-05-12 12:55:00,72.5,43.7,29.97,NNE,16,8.0,-999.0,20,-99.99,,,0.00,0.0,cwc,2013-05-12 18:55:00,
2013-05-12 13:00:00,72.8,43.3,29.97,North,0,0.0,-999.0,18,-99.99,,,0.00,0.0,cwc,2013-05-12 19:00:00,
2013-05-12 13:05:00,74.0,44.8,29.95,NW,308,6.0,-999.0,19,-99.99,,,0.00,0.0,cwc,2013-05-12 19:05:00,
2013-05-12 13:10:00,74.9,45.0,29.95,NW,304,7.0,-999.0,17,-99.99,,,0.00,0.0,cwc,2013-05-12 19:10:00,
2013-05-12 13:15:00,74.2,44.3,29.95,South,181,0.0,-999.0,17,-99.99,,,0.00,0.0,cwc,2013-05-12 19:15:00,
2013-05-12 13:20:00,73.7,43.8,29.95,South,176,0.0,-999.0,17,-99.99,,,0.00,0.0,cwc,2013-05-12 19:20:00,
2013-05-12 13:25:00,73.7,44.2,29.95,North,356,8.0,-999.0,18,-99.99,,,0.00,0.0,cwc,2013-05-12 19:25:00,
2013-05-12 13:30:00,73.5,44.0,29.95,NNW,335,6.0,-999.0,18,-99.99,,,0.00,0.0,cwc,2013-05-12 19:30:00,
2013-05-12 13:35:00,74.9,45.4,29.95,NW,322,4.0,-999.0,18,-99.99,,,0.00,0.0,cwc,2013-05-12 19:35:00,
2013-05-12 13:40:00,75.4,45.2,29.95,SW,232,0.0,-999.0,16,-99.99,,,0.00,0.0,cwc,2013-05-12 19:40:00,
2013-05-12 13:45:00,76.3,46.1,29.95,WNW,292,2.0,-999.0,16,-99.99,,,0.00,0.0,cwc,2013-05-12 19:45:00,
2013-05-12 13:50:00,75.3,44.7,29.93,SW,236,8.0,-999.0,15,-99.99,,,0.00,0.0,cwc,2013-05-12 19:50:00,
2013-05-12 13:55:00,77.2,46.2,29.93,SW,236,0.0,-999.0,14,-99.99,,,0.00,0.0,cwc,2013-05-12 19:55:00,
2013-05-12 14:00:00,77.2,46.2,29.93,WNW,287,0.0,-999.0,14,-99.99,,,0.00,0.0,cwc,2013-05-12 20:00:00,
2013-05-12 14:05:00,78.1,47.1,29.91,NW,308,6.0,-999.0,14,-99.99,,,0.00,0.0,cwc,2013-05-12 20:05:00,
2013-05-12 14:10:00,78.5,47.5,29.91,West,277,7.0,-999.0,14,-99.99,,,0.00,0.0,cwc,2013-05-12 20:10:00,
2013-05-12 14:15:00,77.6,46.6,29.91,SW,227,0.0,-999.0,14,-99.99,,,0.00,0.0,cwc,2013-05-12 20:15:00,
2013-05-12 14:20:00,76.1,45.9,29.91,East,92,1.0,-999.0,16,-99.99,,,0.00,0.0,cwc,2013-05-12 20:20:00,
2013-05-12 14:25:00,75.6,45.0,29.91,NE,45,8.0,-999.0,15,-99.99,,,0.00,0.0,cwc,2013-05-12 20:25:00,
2013-05-12 14:30:00,76.3,45.7,29.91,ESE,104,0.0,-999.0,15,-99.99,,,0.00,0.0,cwc,2013-05-12 20:30:00,
2013-05-12 14:35:00,77.4,46.4,29.91,NE,34,10.0,-999.0,14,-99.99,,,0.00,0.0,cwc,2013-05-12 20:35:00,
2013-05-12 14:40:00,76.1,45.5,29.91,West,271,1.0,-999.0,15,-99.99,,,0.00,0.0,cwc,2013-05-12 20:40:00,
2013-05-12 14:45:00,75.6,45.0,29.91,NW,320,7.0,-999.0,15,-99.99,,,0.00,0.0,cwc,2013-05-12 20:45:00,
2013-05-12 14:50:00,78.1,47.1,29.91,NW,308,1.0,-999.0,14,-99.99,,,0.00,0.0,cwc,2013-05-12 20:50:00,
2013-05-12 14:55:00,77.6,45.9,29.91,NNE,28,0.0,-999.0,12,-99.99,,,0.00,0.0,cwc,2013-05-12 20:55:00,
2013-05-12 15:00:00,80.3,49.0,29.91,WNW,302,8.0,-999.0,13,-99.99,,,0.00,0.0,cwc,2013-05-12 21:00:00,
2013-05-12 15:05:00,77.9,46.2,29.87,West,275,8.0,-999.0,12,-99.99,,,0.00,0.0,cwc,2013-05-12 21:05:00,
2013-05-12 15:10:00,77.2,45.9,29.87,NW,319,8.0,-999.0,13,-99.99,,,0.00,0.0,cwc,2013-05-12 21:10:00,
2013-05-12 15:15:00,79.9,48.6,29.87,West,264,0.0,-999.0,13,-99.99,,,0.00,0.0,cwc,2013-05-12 21:15:00,
2013-05-12 15:20:00,79.0,47.3,29.86,West,281,6.0,-999.0,12,-99.99,,,0.00,0.0,cwc,2013-05-12 21:20:00,
2013-05-12 15:25:00,79.6,47.9,29.86,NW,304,2.0,-999.0,12,-99.99,,,0.00,0.0,cwc,2013-05-12 21:25:00,
2013-05-12 15:30:00,77.9,46.2,29.86,WNW,295,6.0,-999.0,12,-99.99,,,0.00,0.0,cwc,2013-05-12 21:30:00,
2013-05-12 15:35:00,77.2,45.5,29.88,NW,304,6.0,-999.0,12,-99.99,,,0.00,0.0,cwc,2013-05-12 21:35:00,
2013-05-12 15:40:00,77.0,45.7,29.88,NNW,329,0.0,-999.0,13,-99.99,,,0.00,0.0,cwc,2013-05-12 21:40:00,
2013-05-12 15:45:00,76.5,45.5,29.88,NNW,332,4.0,-999.0,14,-99.99,,,0.00,0.0,cwc,2013-05-12 21:45:00,
2013-05-12 15:50:00,76.0,45.0,29.88,NNW,328,6.0,-999.0,14,-99.99,,,0.00,0.0,cwc,2013-05-12 21:50:00,
2013-05-12 15:55:00,75.3,44.3,29.88,WNW,285,0.0,-999.0,14,-99.99,,,0.00,0.0,cwc,2013-05-12 21:55:00,
2013-05-12 16:00:00,74.9,43.9,29.88,WNW,294,0.0,-999.0,14,-99.99,,,0.00,0.0,cwc,2013-05-12 22:00:00,
2013-05-12 16:05:00,74.9,43.9,29.89,South,189,0.0,-999.0,14,-99.99,,,0.00,0.0,cwc,2013-05-12 22:05:00,
2013-05-12 16:10:00,74.7,44.1,29.89,ESE,110,0.0,-999.0,15,-99.99,,,0.00,0.0,cwc,2013-05-12 22:10:00,
2013-05-12 16:15:00,74.0,43.4,29.89,East,92,6.0,-999.0,15,-99.99,,,0.00,0.0,cwc,2013-05-12 22:15:00,
2013-05-12 16:20:00,74.0,43.4,29.92,SE,134,1.0,-999.0,15,-99.99,,,0.00,0.0,cwc,2013-05-12 22:20:00,
2013-05-12 16:25:00,74.0,43.0,29.92,East,96,6.0,-999.0,14,-99.99,,,0.00,0.0,cwc,2013-05-12 22:25:00,
2013-05-12 16:30:00,74.2,43.2,29.92,ENE,76,6.0,-999.0,14,-99.99,,,0.00,0.0,cwc,2013-05-12 22:30:00,
2013-05-12 16:35:00,74.4,43.8,29.92,NE,37,0.0,-999.0,15,-99.99,,,0.00,0.0,cwc,2013-05-12 22:35:00,
2013-05-12 16:40:00,74.0,42.7,29.92,NE,49,7.0,-999.0,13,-99.99,,,0.00,0.0,cwc,2013-05-12 22:40:00,
2013-05-12 16:45:00,74.2,43.2,29.92,East,83,0.0,-999.0,14,-99.99,,,0.00,0.0,cwc,2013-05-12 22:45:00,
2013-05-12 16:50:00,74.0,43.0,29.92,SE,134,8.0,-999.0,14,-99.99,,,0.00,0.0,cwc,2013-05-12 22:50:00,
2013-05-12 16:55:00,74.0,42.7,29.92,South,179,8.0,-999.0,13,-99.99,,,0.00,0.0,cwc,2013-05-12 22:55:00,
2013-05-12 17:00:00,74.4,43.1,29.92,South,169,0.0,-999.0,13,-99.99,,,0.00,0.0,cwc,2013-05-12 23:00:00,
2013-05-12 17:05:00,74.7,43.4,29.92,SSE,167,0.0,-999.0,13,-99.99,,,0.00,0.0,cwc,2013-05-12 23:05:00,
2013-05-12 17:10:00,75.4,44.1,29.92,SSE,167,0.0,-999.0,13,-99.99,,,0.00,0.0,cwc,2013-05-12 23:10:00,
2013-05-12 17:15:00,75.8,44.5,29.92,ESE,123,1.0,-999.0,13,-99.99,,,0.00,0.0,cwc,2013-05-12 23:15:00,
2013-05-12 17:20:00,75.8,44.5,29.92,East,93,0.0,-999.0,13,-99.99,,,0.00,0.0,cwc,2013-05-12 23:20:00,
2013-05-12 17:25:00,76.1,44.8,29.92,East,93,0.0,-999.0,13,-99.99,,,0.00,0.0,cwc,2013-05-12 23:25:00,
2013-05-12 17:30:00,76.1,44.8,29.92,East,86,2.0,-999.0,13,-99.99,,,0.00,0.0,cwc,2013-05-12 23:30:00,
2013-05-12 17:35:00,76.3,44.6,29.92,NE,55,6.0,-999.0,12,-99.99,,,0.00,0.0,cwc,2013-05-12 23:35:00,
2013-05-12 17:40:00,75.4,44.4,29.92,NE,52,1.0,-999.0,14,-99.99,,,0.00,0.0,cwc,2013-05-12 23:40:00,
2013-05-12 17:45:00,75.1,43.8,29.92,NNE,16,4.0,-999.0,13,-99.99,,,0.00,0.0,cwc,2013-05-12 23:45:00,
2013-05-12 17:50:00,74.7,43.7,29.92,NE,38,8.0,-999.0,14,-99.99,,,0.00,0.0,cwc,2013-05-12 23:50:00,
2013-05-12 17:55:00,74.7,43.4,29.92,North,354,0.0,-999.0,13,-99.99,,,0.00,0.0,cwc,2013-05-12 23:55:00,
2013-05-12 18:00:00,74.9,43.6,29.92,North,357,0.0,-999.0,13,-99.99,,,0.00,0.0,cwc,2013-05-13 00:00:00,
2013-05-12 18:05:00,74.7,43.4,29.92,NE,51,6.0,-999.0,13,-99.99,,,0.00,0.0,cwc,2013-05-13 00:05:00,
2013-05-12 18:10:00,74.4,43.1,29.92,NNE,30,13.0,-999.0,13,-99.99,,,0.00,0.0,cwc,2013-05-13 00:10:00,
2013-05-12 18:15:00,74.2,42.9,29.92,NE,56,9.0,-999.0,13,-99.99,,,0.00,0.0,cwc,2013-05-13 00:15:00,
2013-05-12 18:25:00,74.4,43.1,29.91,NNE,27,1.0,-999.0,13,-99.99,,,0.00,0.0,cwc,2013-05-13 00:25:00,
2013-05-12 18:30:00,74.6,43.3,29.91,North,6,6.0,-999.0,13,-99.99,,,0.00,0.0,cwc,2013-05-13 00:30:00,
2013-05-12 18:35:00,74.2,43.2,29.91,NNE,16,8.0,-999.0,14,-99.99,,,0.00,0.0,cwc,2013-05-13 00:35:00,
2013-05-12 18:40:00,74.4,43.4,29.91,NNE,31,0.0,-999.0,14,-99.99,,,0.00,0.0,cwc,2013-05-13 00:40:00,
2013-05-12 18:45:00,74.2,43.2,29.91,NE,37,4.0,-999.0,14,-99.99,,,0.00,0.0,cwc,2013-05-13 00:45:00,
2013-05-12 18:50:00,74.2,43.2,29.91,North,359,6.0,-999.0,14,-99.99,,,0.00,0.0,cwc,2013-05-13 00:50:00,
2013-05-12 18:55:00,74.2,43.6,29.91,ENE,65,7.0,-999.0,15,-99.99,,,0.00,0.0,cwc,2013-05-13 00:55:00,
2013-05-12 19:00:00,74.0,43.4,29.91,ENE,75,2.0,-999.0,15,-99.99,,,0.00,0.0,cwc,2013-05-13 01:00:00,
2013-05-12 19:05:00,73.9,43.3,29.92,ENE,68,2.0,-999.0,15,-99.99,,,0.00,0.0,cwc,2013-05-13 01:05:00,
2013-05-12 19:10:00,73.7,43.5,29.92,ENE,75,4.0,-999.0,16,-99.99,,,0.00,0.0,cwc,2013-05-13 01:10:00,
2013-05-12 19:15:00,73.0,43.1,29.92,NE,56,0.0,-999.0,17,-99.99,,,0.00,0.0,cwc,2013-05-13 01:15:00,
2013-05-12 19:20:00,72.3,43.1,29.87,ENE,76,8.0,-999.0,19,-99.99,,,0.00,0.0,cwc,2013-05-13 01:20:00,
2013-05-12 19:25:00,71.1,41.9,29.87,East,89,8.0,-999.0,19,-99.99,,,0.00,0.0,cwc,2013-05-13 01:25:00,
2013-05-12 19:30:00,70.4,41.6,29.87,East,88,9.0,-999.0,20,-99.99,,,0.00,0.0,cwc,2013-05-13 01:30:00,
2013-05-12 19:35:00,70.1,41.3,29.89,East,89,0.0,-999.0,20,-99.99,,,0.00,0.0,cwc,2013-05-13 01:35:00,
2013-05-12 19:40:00,69.8,41.4,29.89,East,80,4.0,-999.0,21,-99.99,,,0.00,0.0,cwc,2013-05-13 01:40:00,
2013-05-12 19:45:00,69.4,40.6,29.89,East,100,6.0,-999.0,20,-99.99,,,0.00,0.0,cwc,2013-05-13 01:45:00,
2013-05-12 19:50:00,69.3,40.5,29.91,ESE,110,2.0,-999.0,20,-99.99,,,0.00,0.0,cwc,2013-05-13 01:50:00,
2013-05-12 19:55:00,69.1,40.7,29.91,East,100,0.0,-999.0,21,-99.99,,,0.00,0.0,cwc,2013-05-13 01:55:00,
2013-05-12 20:00:00,68.9,40.5,29.91,East,100,0.0,-999.0,21,-99.99,,,0.00,0.0,cwc,2013-05-13 02:00:00,
2013-05-12 20:05:00,68.6,40.5,29.91,East,100,0.0,-999.0,22,-99.99,,,0.00,0.0,cwc,2013-05-13 02:05:00,
2013-05-12 20:10:00,68.3,40.2,29.91,East,100,0.0,-999.0,22,-99.99,,,0.00,0.0,cwc,2013-05-13 02:10:00,
2013-05-12 20:15:00,67.1,39.4,29.91,East,100,0.0,-999.0,23,-99.99,,,0.00,0.0,cwc,2013-05-13 02:15:00,
2013-05-12 20:20:00,67.1,39.7,29.88,East,100,0.0,-999.0,24,-99.99,,,0.00,0.0,cwc,2013-05-13 02:20:00,
2013-05-12 20:25:00,66.6,39.2,29.88,East,100,0.0,-999.0,24,-99.99,,,0.00,0.0,cwc,2013-05-13 02:25:00,
2013-05-12 20:30:00,66.6,39.2,29.88,East,100,0.0,-999.0,24,-99.99,,,0.00,0.0,cwc,2013-05-13 02:30:00,
2013-05-12 20:40:00,65.8,38.4,29.88,East,100,0.0,-999.0,24,-99.99,,,0.00,0.0,cwc,2013-05-13 02:40:00,
2013-05-12 20:45:00,65.6,38.2,29.88,East,100,0.0,-999.0,24,-99.99,,,0.00,0.0,cwc,2013-05-13 02:45:00,
2013-05-12 20:50:00,66.1,38.4,29.89,ESE,102,0.0,-999.0,23,-99.99,,,0.00,0.0,cwc,2013-05-13 02:50:00,
2013-05-12 20:55:00,65.8,38.4,29.89,ESE,102,0.0,-999.0,24,-99.99,,,0.00,0.0,cwc,2013-05-13 02:55:00,
2013-05-12 21:00:00,65.5,38.9,29.89,ESE,102,0.0,-999.0,26,-99.99,,,0.00,0.0,cwc,2013-05-13 03:00:00,
2013-05-12 21:05:00,65.0,38.4,29.90,ESE,102,0.0,-999.0,26,-99.99,,,0.00,0.0,cwc,2013-05-13 03:05:00,
2013-05-12 21:10:00,64.8,37.8,29.90,ESE,102,0.0,-999.0,25,-99.99,,,0.00,0.0,cwc,2013-05-13 03:10:00,
2013-05-12 21:15:00,64.5,37.1,29.90,ESE,102,0.0,-999.0,24,-99.99,,,0.00,0.0,cwc,2013-05-13 03:15:00,
2013-05-12 21:20:00,64.2,37.2,29.89,ESE,102,0.0,-999.0,25,-99.99,,,0.00,0.0,cwc,2013-05-13 03:20:00,
2013-05-12 21:25:00,63.9,37.3,29.89,ESE,120,1.0,-999.0,26,-99.99,,,0.00,0.0,cwc,2013-05-13 03:25:00,
2013-05-12 21:30:00,63.9,37.3,29.89,East,96,0.0,-999.0,26,-99.99,,,0.00,0.0,cwc,2013-05-13 03:30:00,
2013-05-12 21:35:00,64.0,37.4,29.89,East,96,0.0,-999.0,26,-99.99,,,0.00,0.0,cwc,2013-05-13 03:35:00,
2013-05-12 21:40:00,64.0,37.0,29.89,East,92,0.0,-999.0,25,-99.99,,,0.00,0.0,cwc,2013-05-13 03:40:00,
2013-05-12 21:45:00,63.9,37.3,29.89,East,92,0.0,-999.0,26,-99.99,,,0.00,0.0,cwc,2013-05-13 03:45:00,
2013-05-12 21:50:00,63.7,37.1,29.90,East,92,0.0,-999.0,26,-99.99,,,0.00,0.0,cwc,2013-05-13 03:50:00,
2013-05-12 21:55:00,63.5,36.9,29.90,East,92,0.0,-999.0,26,-99.99,,,0.00,0.0,cwc,2013-05-13 03:55:00,
2013-05-12 22:00:00,63.2,36.9,29.90,East,92,0.0,-999.0,27,-99.99,,,0.00,0.0,cwc,2013-05-13 04:00:00,
2013-05-12 22:05:00,63.2,36.9,29.92,East,92,0.0,-999.0,27,-99.99,,,0.00,0.0,cwc,2013-05-13 04:05:00,
2013-05-12 22:10:00,62.9,36.6,29.92,East,92,0.0,-999.0,27,-99.99,,,0.00,0.0,cwc,2013-05-13 04:10:00,
2013-05-12 22:15:00,62.6,36.0,29.92,East,92,0.0,-999.0,26,-99.99,,,0.00,0.0,cwc,2013-05-13 04:15:00,
2013-05-12 22:20:00,62.3,36.0,29.91,East,92,0.0,-999.0,27,-99.99,,,0.00,0.0,cwc,2013-05-13 04:20:00,
2013-05-12 22:25:00,61.8,35.9,29.91,East,92,0.0,-999.0,28,-99.99,,,0.00,0.0,cwc,2013-05-13 04:25:00,
2013-05-12 22:30:00,61.5,35.6,29.91,East,92,0.0,-999.0,28,-99.99,,,0.00,0.0,cwc,2013-05-13 04:30:00,
2013-05-12 22:35:00,60.7,34.8,29.92,East,88,1.0,-999.0,28,-99.99,,,0.00,0.0,cwc,2013-05-13 04:35:00,
2013-05-12 22:40:00,59.9,34.0,29.92,East,88,0.0,-999.0,28,-99.99,,,0.00,0.0,cwc,2013-05-13 04:40:00,
2013-05-12 22:45:00,60.2,35.0,29.92,East,88,0.0,-999.0,30,-99.99,,,0.00,0.0,cwc,2013-05-13 04:45:00,
2013-05-12 22:50:00,59.9,34.0,29.93,East,88,0.0,-999.0,28,-99.99,,,0.00,0.0,cwc,2013-05-13 04:50:00,
2013-05-12 22:55:00,59.5,33.6,29.93,East,88,0.0,-999.0,28,-99.99,,,0.00,0.0,cwc,2013-05-13 04:55:00,
2013-05-12 23:00:00,59.3,34.5,29.93,East,88,0.0,-999.0,31,-99.99,,,0.00,0.0,cwc,2013-05-13 05:00:00,
2013-05-12 23:05:00,58.6,33.4,29.95,East,88,0.0,-999.0,30,-99.99,,,0.00,0.0,cwc,2013-05-13 05:05:00,
2013-05-12 23:10:00,58.3,33.5,29.95,East,88,0.0,-999.0,31,-99.99,,,0.00,0.0,cwc,2013-05-13 05:10:00,
2013-05-12 23:15:00,58.0,32.8,29.95,East,88,0.0,-999.0,30,-99.99,,,0.00,0.0,cwc,2013-05-13 05:15:00,
2013-05-12 23:25:00,57.5,32.3,29.93,East,88,0.0,-999.0,30,-99.99,,,0.00,0.0,cwc,2013-05-13 05:25:00,
2013-05-12 23:30:00,57.3,32.1,29.93,East,88,0.0,-999.0,30,-99.99,,,0.00,0.0,cwc,2013-05-13 05:30:00,
2013-05-12 23:35:00,57.0,32.2,29.93,East,88,0.0,-999.0,31,-99.99,,,0.00,0.0,cwc,2013-05-13 05:35:00,
2013-05-12 23:40:00,56.6,32.1,29.93,East,88,0.0,-999.0,32,-99.99,,,0.00,0.0,cwc,2013-05-13 05:40:00,
2013-05-12 23:45:00,56.6,32.1,29.93,East,88,0.0,-999.0,32,-99.99,,,0.00,0.0,cwc,2013-05-13 05:45:00,
2013-05-12 23:50:00,56.6,31.8,29.94,East,88,0.0,-999.0,31,-99.99,,,0.00,0.0,cwc,2013-05-13 05:50:00,
2013-05-12 23:55:00,56.6,31.8,29.94,East,88,0.0,-999.0,31,-99.99,,,0.00,0.0,cwc,2013-05-13 05:55:00,